THOR BURNER 2 R/B, 3271

Orbit data source: Space-Track

THOR BURNER 2 R/B, 3271 is space debris in SSO originally from a launch on Thu, 23 May 1968 UTC launched from the Air Force Western Test Range (AFWTR). Debris objects in space refer to the collection of defunct objects orbiting the Earth. Examples of debris include non-operational satellites, rocket bodies, and fragments generated from explosions, collisions, or faulty payload assembly.

Loading next visibility...
Identifier
3271, 1968-042B
Orbit
SSO
Country
Flag of USUS
Related business
Manufacturer
Thiokol/TE
Mission
Spacecraft
Bus & Motor
STAR 37, Unknown motor
Mass
154 kg wet, 154 kg dry
Launch date (UTC)
1968-05-23 (57 years ago)
Launch vehicle
Unknown
Launch site
Air Force Western Test Range (AFWTR)
Object type
Payload
Rocket body
Debris
Shape & HBR
Sphere + Cone + 1 Truss, 0.8 m
Radar Cross Section
2.181 m², Large (>1 m²)

Expand to show TLE details & history
Last TLE update: 13 hours ago

TLE from 13 hours ago
0 THOR BURNER 2 R/B
1 03271U 68042B   25259.20850132  .00000116  00000-0  77025-4 0  9990
2 03271  98.5588  78.3360 0050508 259.6587  99.8892 14.17508184958001
Epoch: 2025-09-16T05:00Z
TLE epoch observation values (Epoch: 2025-09-16T05:00:14.514Z)
Latitude
-0.00004°
Longitude
7.87343°
Altitude
843.144 km
Speed
7.428 km/s
True Right ascension
05h 13m 20s
True Declination
0° 00' 00"
Sunlit
Object was in daylight at epoch
Visualization orbit readout
Latitude
Unknown
Longitude
Unknown
Altitude
Unknown
Speed
Unknown
Apparent Right ascension
Unknown
Apparent Declination
Unknown
Sunlit
N/A
Visualization observer readout
Local Sidereal Time
10:17:24
Azimuth
Unknown
Elevation
Unknown
Doppler factor
Unknown
Orbital elements
Apogee altitude
867.359 km
Perigee altitude
794.535 km
Semi-major axis
7,209.084 km
Eccentricity
0.00505
Inclination
98.5588°
RAAN
78.336°
Arg. of periapsis
259.6587°
True anomaly
100.45875°
Mean anomaly
99.8892°
Eccentric anomaly
100.17404°
Mean motion
3.54587 °/min
Orbital period
101.53 mins
BSTAR
0.000077025
Loading maneuver chart data...
Computing Atmospheric mass density...
Loading historical data...
Loading historical data...
Loading historical data...
Loading historical data...
Loading historical data...
Loading historical data...
Loading historical data...
Other satellites on launch #42 in the year 1968 (1968-05-23 UTC)

Documentation

Showing up to 5 results
|